This is the latest recevied weather packets stored in our database for station/object N8VDS-10. If no packets are shown the sender has not sent any weather packets the latest 10 day(s).
| Time | Temp. | Humidity | Pressure | Rain* | Wind** | Luminosity | Snow |
|---|---|---|---|---|---|---|---|
| 1778169228 | 9.44° C | 48% | 1016.5 hPa | 0 mm | - | 734 W/m² | - |
| 1778168925 | 9.44° C | 48% | 1016.4 hPa | 0 mm | - | 231 W/m² | - |
| 1778168624 | 9.44° C | 47% | 1016.5 hPa | 0 mm | - | 211 W/m² | - |
| 1778168622 | 9.44° C | 47% | 1016.5 hPa | 0 mm | - | 211 W/m² | - |
| 1778168319 | 10° C | 46% | 1016.5 hPa | 0 mm | - | 224 W/m² | - |
| 1778168016 | 9.44° C | 47% | 1016.4 hPa | 0 mm | - | 964 W/m² | - |
| 1778167729 | 10° C | 45% | 1016.4 hPa | 0 mm | - | 241 W/m² | - |
| 1778167712 | 9.44° C | 47% | 1016.4 hPa | 0 mm | - | 274 W/m² | - |
| 1778167409 | 10° C | 45% | 1016.4 hPa | 0 mm | - | 241 W/m² | - |
| 1778167206 | 10° C | 47% | 1016.4 hPa | 0 mm | - | 435 W/m² | - |
| 1778167105 | 10° C | 47% | 1016.4 hPa | 0 mm | - | 435 W/m² | - |
| 1778166801 | 9.44° C | 48% | 1016.5 hPa | 0 mm | - | 222 W/m² | - |
| 1778166498 | 9.44° C | 50% | 1016.3 hPa | 0 mm | - | 223 W/m² | - |
| 1778166195 | 10° C | 48% | 1016.5 hPa | 0 mm | - | 239 W/m² | - |
| 1778165891 | 10° C | 50% | 1016.4 hPa | 0 mm | - | 202 W/m² | - |
| 1778165587 | 9.44° C | 50% | 1016.1 hPa | 0 mm | - | 744 W/m² | - |
| 1778165285 | 10° C | 48% | 1016.4 hPa | 0 mm | - | 689 W/m² | - |
| 1778164982 | 10° C | 48% | 1016.3 hPa | 0 mm | - | 579 W/m² | - |
| 1778164678 | 9.44° C | 50% | 1016.3 hPa | 0 mm | - | 641 W/m² | - |
| 1778164376 | 10° C | 49% | 1016.3 hPa | 0 mm | - | 575 W/m² | - |
| 1778164072 | 9.44° C | 49% | 1016.2 hPa | 0 mm | - | 565 W/m² | - |
| 1778163768 | 10° C | 50% | 1016.3 hPa | 0 mm | - | 427 W/m² | - |
| 1778163464 | 10° C | 50% | 1016.2 hPa | 0 mm | - | 506 W/m² | - |
| 1778163162 | 9.44° C | 50% | 1016.2 hPa | 0 mm | - | 497 W/m² | - |
| 1778162857 | 9.44° C | 50% | 1016.2 hPa | 0 mm | - | 482 W/m² | - |
* Rain latest hour (hover to see other rain measurements)
** Current wind speed in m/s (hover to see current wind gust speed)